CHIUDI BANNER

LIVE Streaming HD
Get Adobe Flash player
Dati meteo stazione (refresh automatico ogni minuto)
Senigallia(AN) VENTO: VELOCITÀ   PIOGGIA: QTA GIORNO TEMPERATURA: ATTUALE
SPOT: Darsena Di Senigallia RAFFICA MASSIMA: QTA MENSILE: MASSIMA:
VELOCITÀ MEDIA: QTA ANNUALE: MINIMA:
DIREZIONE: UMIDITÀ: WIND CHILL:
TIPO: DEW POINT:
BEAUFORT: PRESSIONE:
I nostri partner
Senigallia(AN) nelle ultime ore
Applica filtri in visualizzazione Intervallo delle letture nelle ultime

Ora Direzione Vento Velocita' Vento Media Vento Raffica Max. Temperatura Wind Chill Pioggia Pressione
03:26:42236 °(SW)5.2 Kts5.2 Kts8.7 Kts-60.8 °C-69.4 °C0 mm1023.9 Hpa
03:21:19226 °(SW)4.3 Kts5.2 Kts8.7 Kts-62.1 °C-70.8 °C0 mm1023.9 Hpa
03:16:31230 °(SW)4.3 Kts5.2 Kts8.7 Kts-63.2 °C-72.2 °C0 mm1023.9 Hpa
03:11:42211 °(SSW)4.3 Kts4.3 Kts8.7 Kts-63.2 °C-68.5 °C0 mm1023.9 Hpa
03:06:19234 °(SW)7 Kts5.2 Kts8.7 Kts-62.1 °C-70.8 °C0 mm1024 Hpa
03:01:31232 °(SW)6.1 Kts4.3 Kts8.7 Kts-62.1 °C-67.3 °C0 mm1023.9 Hpa
02:56:40233 °(SW)4.3 Kts4.3 Kts8.7 Kts-63.2 °C-68.5 °C0 mm1023.9 Hpa
02:51:19234 °(SW)4.3 Kts4.3 Kts8.7 Kts-64.5 °C-69.9 °C0 mm1024 Hpa
02:46:30213 °(SSW)4.3 Kts4.3 Kts8.7 Kts-64.5 °C-69.9 °C0 mm1024 Hpa
02:41:20221 °(SW)5.2 Kts4.3 Kts8.7 Kts-64.5 °C-69.9 °C0 mm1024 Hpa
02:36:12229 °(SW)3.5 Kts4.3 Kts8.7 Kts-64.5 °C-69.9 °C0 mm1024.1 Hpa
02:31:44216 °(SW)5.2 Kts4.3 Kts8.7 Kts-63.2 °C-68.5 °C0 mm1024 Hpa
02:26:19238 °(WSW)5.2 Kts4.3 Kts8.7 Kts-64.5 °C-69.9 °C0 mm1024.2 Hpa
02:21:30233 °(SW)4.3 Kts4.3 Kts8.7 Kts-64.5 °C-69.9 °C0 mm1024.1 Hpa
02:16:40235 °(SW)4.3 Kts4.3 Kts8.7 Kts-64.5 °C-69.9 °C0 mm1024.1 Hpa
02:11:47229 °(SW)2.6 Kts4.3 Kts8.7 Kts-64.5 °C-69.9 °C0 mm1024.3 Hpa
02:06:24233 °(SW)4.3 Kts4.3 Kts8.7 Kts-64.5 °C-69.9 °C0 mm1024.2 Hpa
02:01:31248 °(WSW)6.1 Kts4.3 Kts8.7 Kts-64.5 °C-69.9 °C0 mm1024.3 Hpa
01:56:40221 °(SW)5.2 Kts5.2 Kts8.7 Kts-64.5 °C-73.6 °C0 mm1024.1 Hpa
01:51:19238 °(WSW)6.1 Kts5.2 Kts8.7 Kts-64.5 °C-73.6 °C0 mm1024.1 Hpa
01:46:28242 °(WSW)2.6 Kts5.2 Kts8.7 Kts-64.5 °C-73.6 °C0 mm1024.3 Hpa
01:41:00236 °(SW)7 Kts5.2 Kts8.7 Kts-64.5 °C-73.6 °C0 mm1024.1 Hpa
01:35:33232 °(SW)6.1 Kts5.2 Kts8.7 Kts-64.5 °C-73.6 °C0 mm1024.1 Hpa
01:31:27219 °(SW)5.2 Kts5.2 Kts8.7 Kts-64.5 °C-73.6 °C0 mm1024 Hpa